This is the latest recevied weather packets stored in our database for station/object KC1DMA. If no packets are shown the sender has not sent any weather packets the latest 10 day(s).
| Time | Temp. | Humidity | Pressure | Rain* | Wind** | Luminosity | Snow |
|---|---|---|---|---|---|---|---|
| 1777557717 | 8.89° C | 99% | 1009 hPa | - | - | 87 W/m² | - |
| 1777557414 | 8.89° C | 99% | 1008.8 hPa | - | - | 86 W/m² | - |
| 1777557110 | 8.89° C | 99% | 1008.9 hPa | - | - | 63 W/m² | - |
| 1777556805 | 8.89° C | 99% | 1008.9 hPa | - | - | 58 W/m² | - |
| 1777556503 | 8.89° C | 99% | 1009 hPa | - | - | 59 W/m² | - |
| 1777556202 | 8.89° C | 99% | 1009.2 hPa | - | - | 77 W/m² | - |
| 1777555898 | 8.89° C | 99% | 1009.1 hPa | - | - | 54 W/m² | - |
| 1777555594 | 8.89° C | 99% | 1009 hPa | - | - | 66 W/m² | - |
| 1777555291 | 8.89° C | 99% | 1008.7 hPa | - | - | 96 W/m² | - |
| 1777554987 | 8.89° C | 99% | 1008.8 hPa | - | - | 107 W/m² | - |
| 1777554685 | 8.89° C | 99% | 1008.9 hPa | - | - | 152 W/m² | - |
| 1777554381 | 8.89° C | 99% | 1009.2 hPa | - | - | 78 W/m² | - |
| 1777554078 | 8.89° C | 99% | 1008.9 hPa | - | - | 128 W/m² | - |
| 1777553774 | 8.89° C | 99% | 1009.1 hPa | - | - | 99 W/m² | - |
| 1777553471 | 8.33° C | 99% | 1009 hPa | - | - | 55 W/m² | - |
| 1777553166 | 8.89° C | 99% | 1009.2 hPa | - | - | 58 W/m² | - |
| 1777552862 | 8.89° C | 99% | 1009.1 hPa | - | - | 93 W/m² | - |
| 1777552557 | 8.89° C | 99% | 1009.2 hPa | - | - | 117 W/m² | - |
| 1777552254 | 8.33° C | 99% | 1009.5 hPa | - | - | 62 W/m² | - |
| 1777551950 | 8.33° C | 99% | 1009.6 hPa | - | - | 66 W/m² | - |
| 1777551649 | 8.33° C | 99% | 1009.4 hPa | - | - | 39 W/m² | - |
| 1777551346 | 8.33° C | 99% | 1009.4 hPa | - | - | 65 W/m² | - |
| 1777551042 | 8.33° C | 99% | 1009.4 hPa | - | - | 72 W/m² | - |
| 1777550739 | 8.33° C | 99% | 1009.5 hPa | - | - | 76 W/m² | - |
| 1777550436 | 8.33° C | 99% | 1009.5 hPa | - | - | 58 W/m² | - |
* Rain since midnight (hover to see other rain measurements)
** Current wind speed in m/s (hover to see current wind gust speed)